Regional Weather Roundup
Issued by NWS

Home | Current Version | Previous Version | Text Only | Print | Product List | Glossary Off
Versions: 1 2 3 4 5 6 7 8 9 10 11 12 13 14 15 16 17 18 19 20 21 22 23 24 25 26 27 28 29 30 31 32 33 34 35 36 37 38 39 40 41 42 43 44 45 46 47 48 49 50

000
ASUS43 KBIS 211010
RWRND
NORTH DAKOTA REGIONAL WEATHER ROUNDUP
NATIONAL WEATHER SERVICE EASTERN NORTH DAKOTA/GRAND FORKS ND
500 AM CDT SAT APR 21 2018

  NOTE: "FAIR" INDICATES FEW OR NO CLOUDS BELOW 12,000 FEET WITH NO
  SIGNIFICANT WEATHER AND/OR OBSTRUCTIONS TO VISIBILITY.

NDZ001>003-009>011-017-211100-
...NORTHWEST NORTH DAKOTA...

CITY           SKY/WX    TMP DP  RH WIND       PRES   REMARKS
WILLISTON      FAIR      41  36  82 S7        30.14F
MINOT          FAIR      43  36  76 S6        30.20R
MINOT AFB      FAIR      41  36  80 SW15      30.19R
$$

NDZ018>021-031>035-040>046-211100-
...SOUTHWEST NORTH DAKOTA...

CITY           SKY/WX    TMP DP  RH WIND       PRES   REMARKS
BISMARCK       FAIR      36  34  92 SE8       30.27S WCI  30
DICKINSON      FAIR      36  35  96 S14       30.17S WCI  27
GARRISON         N/A     35  33  92 SW7       30.22R WCI  29
HETTINGER      CLOUDY    39  36  89 S17G24    30.23S WCI  30
$$

NDZ004>008-012>016-024-026-027-054-211100-
...NORTHEAST NORTH DAKOTA...

CITY           SKY/WX    TMP DP  RH WIND       PRES   REMARKS
GRAND FORKS    FAIR      34  34 100 S10       30.33F WCI  26
GRAND FORKS AF MOCLDY    33  33  99 S8        30.32F WCI  26
DEVILS LAKE    FAIR      33  31  92 S5        30.30R WCI  29
$$

NDZ022-023-025-028>030-036>039-047>053-211100-
...SOUTHEAST NORTH DAKOTA...

CITY           SKY/WX    TMP DP  RH WIND       PRES   REMARKS
JAMESTOWN      CLOUDY    35  33  92 S6        30.31R WCI  30
FARGO          FAIR      35  32  88 S8        30.36S WCI  29
WAHPETON       FAIR      32  30  93 SE3       30.38S
$$




USA.gov is the U.S. government's official web portal to all federal, state and local government web resources and services.